This is the latest recevied weather packets stored in our database for station/object KD4EED. If no packets are shown the sender has not sent any weather packets the latest 10 day(s).
| Time | Temp. | Humidity | Pressure | Rain* | Wind** | Luminosity | Snow |
|---|---|---|---|---|---|---|---|
| 1777594851 | 22.22° C | 59% | 1008.4 hPa | - | - | 264 W/m² | - |
| 1777594548 | 21.67° C | 61% | 1008.3 hPa | - | - | 294 W/m² | - |
| 1777594244 | 22.22° C | 60% | 1008.3 hPa | - | - | 308 W/m² | - |
| 1777593940 | 22.22° C | 58% | 1008.4 hPa | - | - | 321 W/m² | - |
| 1777593637 | 22.22° C | 59% | 1008.3 hPa | - | - | 335 W/m² | - |
| 1777593333 | 22.78° C | 58% | 1008.1 hPa | - | - | 355 W/m² | - |
| 1777593033 | 22.22° C | 59% | 1008.2 hPa | - | - | 376 W/m² | - |
| 1777592732 | 22.22° C | 59% | 1008.3 hPa | - | - | 394 W/m² | - |
| 1777592428 | 22.22° C | 59% | 1008.3 hPa | - | - | 403 W/m² | - |
| 1777592123 | 22.22° C | 59% | 1008.3 hPa | - | - | 427 W/m² | - |
| 1777591821 | 22.78° C | 57% | 1008 hPa | - | - | 437 W/m² | - |
| 1777591516 | 22.22° C | 58% | 1008.1 hPa | - | - | 456 W/m² | - |
| 1777591213 | 21.67° C | 59% | 1008.1 hPa | - | - | 472 W/m² | - |
| 1777590908 | 22.22° C | 58% | 1008.2 hPa | - | - | 489 W/m² | - |
| 1777590604 | 22.22° C | 58% | 1008.1 hPa | - | - | 499 W/m² | - |
| 1777590301 | 22.22° C | 58% | 1008.1 hPa | - | - | 516 W/m² | - |
| 1777589998 | 22.78° C | 57% | 1008.4 hPa | - | - | 530 W/m² | - |
| 1777589694 | 22.78° C | 57% | 1008.4 hPa | - | - | 555 W/m² | - |
| 1777589392 | 22.78° C | 57% | 1008.5 hPa | - | - | 567 W/m² | - |
| 1777589089 | 22.78° C | 57% | 1008.3 hPa | - | - | 584 W/m² | - |
| 1777588784 | 22.78° C | 57% | 1008.5 hPa | - | - | 597 W/m² | - |
| 1777588480 | 22.78° C | 58% | 1008.6 hPa | - | - | 618 W/m² | - |
| 1777588175 | 22.78° C | 56% | 1008.7 hPa | - | - | 621 W/m² | - |
| 1777587871 | 23.33° C | 55% | 1008.4 hPa | - | - | 631 W/m² | - |
| 1777587567 | 23.33° C | 57% | 1008.5 hPa | - | - | 648 W/m² | - |
* Rain since midnight (hover to see other rain measurements)
** Current wind speed in m/s (hover to see current wind gust speed)